Temp
-4 -4 -3 -3 -3 -3 -3 -3 -3 -3 -3 -3 -2 -2 -2 -2 -2 -2 -1 -1 -1 -1 -1 -1 -1 -1 -0 -1 -0 -1 -0 -0 -0 0 1 1 1 1 1 1 1 1 1 1 1 1 1 1 1 1 2 2
-5 -5 -4 -4 -4 -4 -4 -4 -3 -3 -3 -3 -3 -3 -2 -2 -2 -2 -2 -2 -2 -1 -1 -1 -1 -1 -1 -1 -0 -0 -0 -0 -0 -0 0 1 1 1 1 1 1 1 1 0 0 1 0 0 1 1 1 2
-6 -6 -5 -5 -5 -5 -5 -4 -4 -4 -4 -3 -3 -3 -3 -3 -3 -2 -2 -2 -2 -2 -1 -1 -1 -1 -1 -1 -1 -1 -0 -0 -0 -0 -0 0 0 0 1 1 1 0 0 0 0 0 0 0 0 1 1 1
-8 -7 -7 -7 -6 -6 -5 -5 -5 -5 -4 -4 -4 -4 -3 -3 -3 -3 -3 -2 -2 -2 -2 -2 -1 -1 -1 -1 -1 -1 -1 -1 -1 -1 -0 0 -0 -0 -0 0 0 -0 -0 -0 -0 -0 -0 -0 0 0 0 1
-8 -9 -8 -8 -8 -8 -7 -7 -6 -6 -5 -5 -5 -4 -4 -4 -3 -3 -3 -3 -3 -2 -2 -2 -2 -2 -2 -2 -2 -1 -1 -1 -1 -1 -1 -1 -0 -1 -1 -0 0 -0 -1 -1 -1 -1 -1 -0 -0 -0 0 0
-9 -9 -9 -9 -9 -9 -9 -8 -8 -7 -7 -6 -6 -5 -5 -4 -4 -4 -4 -3 -3 -3 -2 -2 -2 -2 -2 -2 -2 -2 -2 -1 -1 -1 -1 -1 -1 -1 -1 -0 -0 -1 -1 -1 -1 -1 -1 -1 -1 -0 -0 0
-9 -9 -9 -10 -10 -9 -9 -9 -9 -9 -8 -8 -7 -6 -6 -5 -5 -4 -4 -4 -4 -3 -3 -3 -3 -2 -3 -3 -3 -3 -2 -2 -2 -2 -1 -1 -1 -1 -1 -1 -1 -1 -1 -1 -1 -1 -1 -1 -1 -1 -1 -0
-10 -10 -10 -10 -10 -10 -10 -10 -10 -10 -9 -9 -8 -8 -7 -7 -6 -6 -5 -5 -4 -4 -4 -3 -3 -3 -3 -3 -3 -3 -3 -2 -2 -2 -2 -2 -2 -1 -1 -1 -1 -1 -1 -1 -1 -1 -1 -1 -1 -1 -1 -1
-11 -11 -10 -10 -10 -10 -10 -10 -10 -10 -10 -10 -9 -9 -8 -8 -7 -7 -6 -6 -5 -5 -4 -4 -4 -4 -3 -3 -3 -3 -3 -3 -3 -2 -2 -2 -2 -2 -1 -1 -1 -1 -1 -1 -1 -1 -1 -1 -2 -2 -1 -1
-12 -12 -11 -11 -11 -11 -11 -11 -11 -11 -10 -10 -10 -10 -9 -9 -9 -8 -7 -7 -6 -6 -5 -5 -5 -5 -4 -4 -4 -4 -4 -4 -3 -3 -3 -3 -3 -2 -2 -1 -1 -1 -1 -1 -1 -1 -1 -1 -2 -2 -2 -2
-13 -12 -12 -12 -12 -11 -11 -11 -11 -11 -11 -11 -11 -10 -10 -10 -10 -9 -9 -8 -7 -7 -7 -7 -7 -6 -6 -6 -5 -5 -5 -5 -4 -4 -4 -4 -4 -3 -2 -2 -2 -1 -1 -1 -1 -1 -1 -1 -2 -2 -2 -2
-13 -13 -13 -13 -12 -12 -12 -11 -11 -11 -11 -11 -11 -11 -10 -10 -10 -10 -10 -9 -8 -8 -8 -8 -8 -7 -7 -7 -7 -6 -6 -6 -5 -5 -5 -5 -4 -4 -3 -2 -2 -2 -1 -2 -1 -1 -1 -1 -2 -2 -2 -2
-14 -14 -14 -13 -13 -13 -13 -12 -12 -12 -12 -12 -11 -11 -11 -11 -11 -10 -10 -10 -9 -9 -9 -8 -8 -8 -8 -8 -7 -7 -7 -6 -6 -5 -5 -5 -5 -5 -4 -3 -3 -2 -2 -2 -2 -2 -2 -2 -2 -2 -2 -2
-14 -14 -14 -14 -14 -14 -13 -13 -13 -13 -12 -12 -12 -12 -11 -11 -11 -11 -11 -10 -10 -10 -10 -9 -9 -8 -8 -8 -8 -8 -7 -7 -6 -6 -6 -6 -5 -5 -4 -4 -3 -3 -2 -2 -2 -2 -2 -2 -2 -2 -2 -2
-14 -14 -14 -14 -14 -14 -14 -14 -14 -13 -13 -13 -12 -12 -12 -11 -11 -11 -11 -11 -11 -11 -10 -10 -10 -9 -9 -9 -9 -8 -8 -8 -7 -7 -6 -6 -5 -5 -5 -5 -4 -3 -3 -3 -2 -2 -2 -2 -2 -2 -2 -2
-13 -13 -13 -13 -13 -13 -13 -13 -13 -13 -13 -13 -13 -13 -12 -12 -12 -11 -11 -11 -11 -11 -11 -10 -10 -10 -9 -9 -9 -9 -9 -8 -8 -8 -7 -6 -6 -5 -5 -5 -5 -4 -4 -3 -3 -3 -2 -2 -2 -2 -2 -2
-13 -13 -13 -13 -13 -13 -13 -13 -13 -13 -13 -13 -13 -13 -13 -13 -12 -12 -12 -11 -11 -11 -11 -11 -11 -10 -10 -10 -9 -9 -9 -9 -9 -8 -8 -7 -6 -6 -5 -5 -5 -4 -4 -4 -3 -3 -3 -3 -2 -2 -2 -3
-15 -14 -13 -13 -13 -12 -12 -12 -12 -12 -12 -13 -13 -13 -13 -13 -13 -12 -12 -12 -11 -11 -11 -11 -11 -11 -11 -10 -10 -10 -9 -9 -9 -9 -8 -8 -7 -6 -6 -5 -5 -5 -4 -4 -4 -3 -3 -3 -3 -3 -3 -3
-16 -16 -15 -15 -14 -14 -13 -13 -12 -12 -12 -12 -12 -12 -12 -12 -12 -13 -12 -12 -12 -12 -12 -11 -11 -11 -11 -11 -11 -10 -10 -9 -9 -9 -9 -8 -8 -8 -7 -6 -6 -5 -5 -5 -4 -4 -4 -3 -3 -3 -3 -3
-17 -17 -16 -16 -16 -15 -15 -14 -14 -13 -12 -12 -12 -12 -12 -12 -12 -12 -12 -12 -12 -12 -12 -12 -12 -11 -11 -11 -11 -11 -10 -10 -9 -9 -9 -9 -9 -8 -8 -7 -7 -6 -5 -5 -5 -5 -4 -4 -4 -4 -3 -3
-17 -17 -17 -17 -16 -16 -16 -16 -16 -15 -14 -13 -13 -12 -12 -12 -12 -12 -12 -12 -12 -12 -12 -12 -12 -12 -12 -11 -11 -11 -11 -10 -10 -10 -9 -9 -9 -9 -8 -8 -8 -7 -6 -5 -5 -5 -5 -5 -4 -4 -4 -3
-17 -17 -17 -17 -17 -17 -17 -17 -17 -17 -16 -15 -14 -14 -14 -13 -13 -12 -12 -12 -12 -12 -12 -12 -12 -12 -12 -12 -11 -11 -11 -11 -11 -10 -10 -10 -9 -9 -9 -8 -8 -8 -7 -7 -6 -6 -6 -6 -5 -5 -5 -4
-17 -17 -17 -17 -17 -18 -18 -18 -18 -18 -17 -16 -16 -15 -15 -15 -14 -13 -13 -13 -12 -12 -12 -12 -12 -11 -11 -11 -11 -11 -11 -11 -11 -11 -10 -10 -10 -10 -9 -9 -9 -8 -8 -8 -7 -6 -6 -6 -6 -6 -6 -5
-16 -17 -17 -17 -18 -18 -18 -18 -18 -18 -17 -17 -16 -16 -16 -16 -16 -15 -14 -14 -13 -13 -12 -12 -12 -11 -11 -11 -11 -11 -11 -12 -12 -11 -11 -11 -10 -10 -10 -9 -9 -9 -9 -8 -8 -8 -7 -6 -6 -6 -6 -6
-15 -16 -17 -17 -18 -18 -18 -18 -18 -17 -17 -17 -16 -16 -16 -16 -16 -16 -15 -15 -15 -14 -13 -13 -12 -12 -12 -11 -11 -11 -11 -11 -11 -12 -12 -11 -11 -10 -10 -10 -10 -9 -9 -9 -8 -8 -8 -8 -7 -6 -6 -6
-15 -16 -17 -17 -18 -18 -18 -18 -18 -18 -17 -17 -17 -17 -16 -16 -16 -16 -16 -16 -16 -16 -15 -14 -14 -13 -13 -12 -12 -11 -11 -11 -11 -11 -11 -11 -11 -11 -11 -10 -10 -10 -10 -9 -9 -9 -9 -9 -8 -8 -7 -6
-16 -16 -17 -17 -18 -18 -18 -18 -18 -18 -17 -17 -17 -17 -17 -16 -16 -16 -16 -16 -16 -16 -16 -16 -15 -14 -14 -13 -13 -12 -11 -11 -10 -11 -11 -11 -11 -11 -11 -11 -10 -10 -10 -10 -9 -9 -9 -9 -9 -9 -9 -8
-16 -16 -17 -17 -17 -18 -18 -18 -18 -18 -18 -18 -17 -17 -17 -16 -16 -17 -17 -16 -16 -16 -16 -16 -16 -15 -15 -14 -14 -13 -12 -11 -11 -11 -11 -11 -11 -11 -11 -11 -11 -11 -10 -10 -10 -10 -9 -9 -9 -9 -9 -9
-16 -16 -16 -17 -17 -17 -18 -18 -18 -18 -18 -17 -17 -17 -17 -17 -17 -18 -17 -17 -17 -16 -16 -16 -16 -16 -15 -15 -15 -14 -14 -13 -12 -12 -11 -11 -11 -11 -11 -11 -11 -11 -11 -10 -10 -10 -10 -9 -9 -9 -9 -9
-16 -16 -16 -16 -16 -17 -17 -17 -18 -18 -18 -18 -18 -18 -18 -18 -18 -18 -18 -18 -17 -17 -16 -16 -16 -16 -16 -16 -16 -15 -15 -14 -14 -13 -13 -12 -11 -11 -11 -11 -11 -11 -11 -10 -10 -10 -10 -10 -9 -9 -9 -9
-16 -16 -16 -16 -16 -16 -16 -17 -17 -17 -18 -18 -18 -18 -18 -18 -18 -18 -18 -18 -17 -17 -17 -16 -16 -16 -16 -16 -16 -16 -15 -15 -14 -14 -14 -13 -12 -11 -11 -11 -11 -10 -10 -10 -10 -10 -10 -10 -10 -10 -9 -9
Height
3095 3094 3093 3092 3092 3091 3091 3090 3090 3089 3090 3090 3090 3091 3092 3093 3093 3094 3094 3095 3096 3096 3097 3098 3098 3099 3100 3100 3102 3102 3102 3102 3103 3103 3104 3106 3107 3109 3111 3113 3114 3116 3116 3117 3118 3119 3120 3120 3121 3122 3123 3124
3090 3089 3088 3088 3088 3087 3087 3086 3086 3086 3086 3086 3086 3087 3088 3089 3089 3090 3090 3091 3092 3092 3093 3094 3095 3095 3096 3097 3098 3097 3098 3098 3099 3100 3101 3103 3105 3107 3108 3110 3111 3112 3114 3114 3115 3116 3117 3118 3119 3120 3121 3121
3085 3084 3084 3084 3084 3083 3083 3082 3082 3082 3082 3082 3082 3082 3083 3084 3085 3085 3086 3087 3088 3088 3089 3090 3091 3091 3092 3093 3094 3094 3094 3094 3095 3096 3097 3099 3102 3104 3105 3106 3107 3108 3110 3111 3112 3113 3113 3115 3116 3118 3119 3119
3081 3081 3081 3080 3079 3079 3079 3079 3078 3078 3077 3077 3078 3078 3078 3079 3080 3081 3081 3082 3083 3084 3085 3086 3087 3087 3088 3089 3090 3091 3092 3091 3091 3092 3093 3096 3098 3099 3101 3102 3103 3105 3106 3107 3108 3110 3110 3111 3113 3115 3116 3117
3078 3077 3077 3076 3076 3075 3075 3075 3075 3074 3074 3073 3074 3074 3074 3074 3075 3076 3076 3077 3078 3079 3080 3082 3083 3083 3085 3085 3086 3087 3088 3088 3089 3089 3090 3092 3094 3095 3097 3099 3100 3101 3102 3103 3105 3106 3107 3108 3110 3112 3113 3114
3074 3074 3073 3072 3072 3072 3071 3071 3071 3070 3070 3070 3070 3069 3069 3070 3070 3071 3071 3072 3073 3074 3076 3077 3078 3079 3080 3081 3082 3084 3084 3085 3086 3086 3087 3089 3090 3091 3093 3094 3096 3097 3098 3100 3101 3102 3104 3105 3107 3109 3109 3111
3071 3070 3069 3068 3068 3068 3067 3067 3067 3066 3066 3066 3066 3066 3066 3066 3066 3066 3067 3067 3068 3069 3071 3072 3073 3074 3075 3076 3078 3079 3080 3081 3082 3083 3084 3085 3086 3087 3089 3090 3091 3092 3094 3096 3098 3099 3101 3103 3104 3105 3106 3108
3067 3066 3066 3065 3064 3064 3063 3063 3063 3062 3062 3062 3061 3062 3063 3063 3062 3062 3062 3062 3063 3064 3066 3067 3068 3069 3070 3070 3072 3074 3075 3076 3077 3078 3080 3081 3082 3082 3084 3086 3087 3088 3090 3092 3094 3095 3097 3099 3100 3101 3103 3104
3064 3063 3062 3061 3060 3060 3059 3059 3059 3058 3058 3057 3057 3057 3059 3059 3058 3058 3058 3058 3058 3060 3061 3062 3063 3063 3064 3065 3066 3068 3070 3071 3072 3074 3075 3077 3079 3078 3078 3080 3082 3083 3085 3087 3089 3091 3093 3094 3096 3097 3099 3100
3060 3059 3059 3058 3057 3056 3055 3055 3055 3054 3054 3053 3053 3053 3054 3054 3054 3055 3054 3054 3055 3056 3057 3057 3058 3058 3060 3061 3061 3063 3064 3065 3067 3069 3070 3072 3075 3076 3075 3075 3077 3078 3080 3082 3084 3086 3088 3090 3092 3093 3094 3096
3056 3055 3055 3054 3053 3052 3051 3051 3050 3050 3050 3049 3049 3049 3050 3050 3050 3051 3051 3051 3051 3052 3053 3053 3053 3054 3055 3056 3056 3057 3059 3060 3062 3063 3065 3067 3069 3072 3073 3072 3072 3073 3074 3076 3079 3081 3083 3086 3087 3089 3090 3092
3052 3051 3050 3050 3049 3048 3047 3047 3046 3046 3045 3045 3045 3045 3045 3045 3046 3046 3046 3047 3048 3048 3049 3049 3049 3049 3050 3051 3051 3052 3054 3055 3057 3059 3060 3062 3064 3066 3069 3070 3070 3069 3069 3070 3073 3076 3078 3080 3082 3083 3085 3087
3047 3047 3046 3045 3044 3044 3043 3043 3042 3042 3041 3040 3040 3040 3040 3040 3041 3042 3042 3043 3043 3044 3044 3045 3045 3045 3046 3047 3047 3048 3049 3051 3053 3055 3056 3057 3059 3061 3064 3066 3067 3067 3066 3066 3068 3070 3072 3074 3076 3078 3080 3083
3042 3042 3041 3040 3039 3039 3039 3038 3038 3037 3036 3035 3035 3035 3035 3035 3035 3036 3037 3038 3039 3039 3040 3040 3041 3041 3042 3042 3042 3043 3044 3046 3048 3050 3051 3052 3053 3056 3059 3061 3063 3064 3064 3063 3062 3064 3066 3068 3071 3073 3076 3079
3036 3036 3035 3035 3034 3034 3033 3033 3033 3032 3032 3031 3030 3029 3029 3029 3029 3030 3032 3033 3034 3034 3035 3036 3037 3037 3037 3038 3038 3038 3040 3041 3042 3044 3046 3047 3049 3050 3053 3055 3057 3059 3061 3061 3060 3060 3060 3062 3064 3067 3070 3072
3029 3028 3028 3028 3028 3028 3027 3027 3027 3027 3027 3027 3026 3025 3024 3023 3023 3024 3025 3026 3028 3029 3030 3031 3032 3032 3033 3033 3034 3034 3035 3036 3037 3038 3040 3042 3044 3045 3047 3049 3052 3054 3056 3057 3058 3058 3057 3057 3059 3061 3063 3066
3022 3021 3020 3020 3020 3020 3020 3020 3020 3020 3021 3021 3021 3021 3020 3019 3018 3017 3018 3019 3021 3023 3024 3026 3027 3027 3028 3028 3029 3029 3030 3031 3032 3034 3035 3036 3038 3039 3041 3044 3046 3048 3050 3052 3054 3055 3055 3054 3055 3057 3058 3060
3015 3014 3013 3013 3012 3012 3012 3013 3013 3013 3014 3014 3014 3015 3015 3014 3013 3012 3012 3013 3014 3016 3017 3019 3021 3022 3023 3023 3024 3024 3025 3026 3028 3029 3030 3031 3032 3034 3036 3038 3040 3042 3044 3046 3048 3051 3052 3050 3050 3052 3054 3056
3010 3008 3007 3006 3005 3005 3005 3005 3005 3005 3006 3006 3007 3008 3008 3009 3008 3008 3007 3007 3008 3008 3009 3011 3013 3015 3017 3017 3018 3019 3020 3021 3023 3024 3026 3027 3028 3029 3030 3031 3034 3036 3038 3040 3043 3045 3047 3047 3046 3046 3049 3051
3006 3004 3002 3001 2999 2999 2999 2998 2998 2997 2997 2998 2999 3000 3000 3001 3001 3002 3002 3002 3002 3002 3002 3003 3005 3008 3009 3011 3012 3014 3015 3017 3018 3019 3020 3022 3023 3024 3025 3026 3027 3030 3032 3034 3037 3039 3041 3043 3043 3043 3044 3045
3003 3000 2998 2996 2995 2994 2993 2992 2992 2991 2990 2990 2991 2992 2992 2992 2993 2994 2995 2996 2996 2996 2996 2996 2998 3000 3002 3004 3006 3008 3009 3011 3012 3014 3015 3016 3018 3019 3020 3021 3022 3024 3026 3028 3031 3033 3035 3038 3039 3040 3040 3040
2998 2996 2994 2993 2992 2990 2989 2988 2987 2986 2985 2984 2984 2985 2985 2985 2985 2986 2987 2988 2989 2989 2990 2990 2991 2992 2994 2997 2999 3001 3002 3004 3006 3008 3009 3010 3012 3014 3015 3016 3018 3019 3020 3022 3024 3027 3029 3031 3033 3034 3036 3036
2993 2991 2990 2989 2988 2987 2985 2984 2982 2981 2981 2980 2980 2979 2979 2979 2979 2979 2979 2980 2981 2982 2983 2984 2985 2986 2987 2989 2991 2993 2996 2997 2999 3001 3003 3004 3006 3008 3009 3011 3012 3014 3015 3016 3018 3020 3023 3024 3027 3028 3030 3032
2987 2986 2985 2984 2984 2983 2982 2980 2978 2977 2977 2977 2976 2976 2975 2974 2974 2974 2973 2973 2973 2974 2976 2977 2978 2980 2981 2982 2983 2986 2988 2990 2992 2994 2996 2998 3000 3002 3004 3005 3007 3008 3009 3010 3013 3015 3016 3018 3020 3022 3024 3027
2982 2980 2978 2978 2978 2977 2976 2975 2974 2973 2973 2972 2972 2972 2972 2971 2970 2969 2969 2969 2968 2968 2969 2970 2971 2973 2974 2975 2976 2978 2979 2982 2984 2986 2988 2990 2993 2995 2997 2999 3001 3002 3003 3004 3007 3009 3010 3012 3014 3016 3018 3021
2977 2975 2973 2971 2971 2970 2969 2969 2968 2967 2967 2967 2967 2967 2967 2967 2966 2965 2965 2965 2964 2963 2962 2963 2963 2965 2966 2967 2968 2970 2971 2973 2976 2979 2981 2983 2985 2988 2990 2993 2995 2996 2997 2998 3001 3002 3004 3007 3010 3011 3013 3015
2973 2971 2969 2966 2964 2962 2962 2962 2962 2962 2962 2962 2962 2962 2962 2962 2962 2961 2961 2960 2959 2958 2958 2957 2957 2957 2958 2959 2960 2962 2963 2965 2968 2970 2973 2975 2978 2981 2983 2986 2989 2990 2991 2993 2995 2995 2997 3002 3005 3006 3008 3011
2970 2967 2965 2962 2960 2957 2956 2955 2956 2957 2957 2957 2956 2956 2956 2956 2956 2956 2956 2955 2954 2953 2953 2952 2951 2951 2951 2952 2953 2954 2956 2958 2960 2961 2964 2967 2970 2973 2975 2978 2981 2984 2986 2988 2989 2989 2991 2996 2997 3000 3005 3007
2966 2964 2961 2959 2957 2954 2952 2951 2951 2952 2952 2953 2952 2951 2951 2951 2951 2950 2949 2949 2948 2948 2947 2947 2946 2946 2945 2946 2946 2947 2948 2950 2952 2953 2955 2958 2961 2964 2967 2970 2974 2978 2981 2982 2983 2983 2986 2989 2989 2993 2999 3000
2964 2961 2958 2956 2953 2952 2950 2949 2948 2948 2948 2948 2948 2947 2947 2946 2945 2945 2944 2943 2943 2942 2942 2941 2941 2941 2940 2940 2940 2940 2941 2942 2944 2946 2947 2949 2951 2955 2958 2961 2965 2970 2974 2976 2976 2978 2980 2983 2983 2987 2991 2992
2962 2959 2956 2953 2951 2949 2947 2946 2946 2945 2945 2944 2944 2944 2943 2942 2942 2941 2940 2939 2938 2937 2937 2936 2936 2935 2934 2934 2934 2934 2934 2935 2937 2938 2939 2940 2943 2946 2949 2951 2955 2960 2965 2967 2970 2973 2975 2977 2978 2981 2983 2985
Wind_Speed
38 39 39 40 40 40 40 40 40 40 40 40 40 40 39 38 36 34 34 35 36 35 34 32 33 34 34 35 34 35 37 37 37 37 36 33 29 27 26 26 26 27 30 30 30 30 30 29 29 29 29 28
37 37 38 39 39 38 39 39 40 41 41 42 42 42 41 41 40 39 37 36 34 33 33 32 32 34 34 34 33 35 36 38 39 39 38 34 28 26 27 28 28 28 29 31 32 31 31 32 30 29 30 30
35 36 36 37 37 37 38 38 39 40 41 42 42 42 42 42 42 42 41 40 37 35 34 33 33 34 34 34 34 34 35 38 41 41 40 36 30 29 30 30 29 29 28 29 32 33 33 34 32 30 30 30
34 34 33 34 34 35 36 37 37 38 39 40 41 41 42 42 43 43 43 43 42 40 39 37 36 36 34 33 33 33 34 38 41 41 42 39 34 32 32 32 32 30 28 28 30 33 35 35 34 32 30 29
35 33 33 32 32 32 33 34 35 36 37 38 39 40 40 41 42 43 44 45 45 45 45 43 41 39 37 34 34 33 35 36 38 39 42 41 37 34 34 34 33 31 30 30 30 30 32 34 34 34 33 32
35 34 33 32 31 31 31 31 31 33 34 35 36 37 39 40 41 42 43 45 46 47 48 48 47 45 43 41 39 37 36 36 37 37 38 39 38 36 35 36 35 33 33 32 32 31 29 31 31 32 34 34
36 35 35 33 32 31 31 31 30 31 32 32 34 35 36 37 38 40 41 43 45 47 49 50 50 50 49 46 44 42 40 38 37 37 36 37 41 42 38 38 37 35 34 34 34 33 30 29 30 31 33 34
37 37 36 35 34 33 31 31 30 30 31 31 33 34 34 34 36 37 39 40 42 45 47 50 51 51 51 50 48 47 45 42 38 37 35 34 39 46 45 43 41 38 36 36 36 36 33 31 30 31 33 34
38 38 38 37 36 35 32 31 31 31 31 32 32 33 33 33 34 35 37 39 40 42 45 47 49 51 52 52 50 50 49 49 47 43 39 33 33 39 45 47 43 40 39 39 39 38 37 35 32 32 33 34
39 39 39 38 37 37 35 33 32 32 32 33 33 34 34 33 33 35 36 37 38 39 41 43 45 48 51 52 51 49 49 51 52 51 47 41 35 33 39 44 44 42 42 41 40 40 38 37 35 33 34 35
39 39 39 39 38 38 37 36 35 34 34 35 35 36 35 34 34 35 36 37 37 37 38 38 40 42 46 49 50 49 48 48 50 51 50 46 42 38 36 40 44 46 45 43 43 42 40 38 37 36 35 35
39 39 39 39 38 37 37 37 37 37 37 37 37 38 38 36 35 35 36 36 37 36 36 37 37 39 41 44 48 50 49 47 45 47 48 46 44 43 40 38 41 45 46 45 45 44 43 42 40 39 38 36
40 39 39 39 38 38 38 38 38 38 39 40 40 40 40 40 38 37 37 37 37 37 37 37 37 38 39 40 43 48 50 50 46 44 45 46 46 45 43 41 39 41 44 46 47 47 46 45 43 41 39 37
42 41 40 39 39 39 39 39 39 39 40 41 42 43 42 42 41 40 39 38 37 37 37 37 38 38 38 39 41 44 47 50 50 46 45 45 46 45 45 46 44 41 40 43 47 50 49 47 46 43 39 37
45 43 42 41 40 40 40 39 39 39 39 40 42 43 44 45 45 44 42 41 39 38 38 38 38 39 39 39 41 43 45 47 50 50 48 45 45 45 46 48 48 45 41 39 43 48 50 49 47 44 41 39
47 46 45 44 42 42 41 40 40 40 39 39 40 42 43 45 46 47 45 44 43 41 40 39 39 40 40 40 41 42 44 45 47 49 50 49 45 44 45 48 50 49 45 42 42 46 49 50 48 45 42 39
47 47 47 47 46 45 44 43 42 42 41 40 40 40 41 43 45 47 47 47 46 45 43 42 41 40 41 42 42 42 43 44 45 47 49 51 49 46 45 46 48 50 49 46 44 45 48 50 49 47 44 40
44 45 46 46 47 48 47 47 46 45 44 42 41 41 41 42 44 46 47 47 47 47 47 45 44 43 42 43 43 44 44 44 44 45 47 50 51 50 49 47 46 47 49 49 47 46 47 49 50 49 46 42
41 41 41 41 43 44 45 46 47 47 47 46 45 44 43 43 43 44 46 47 47 48 49 48 47 46 45 44 45 45 46 46 45 45 46 48 50 52 52 52 49 46 47 48 48 48 47 47 49 50 49 45
38 38 38 38 38 38 38 39 41 43 44 45 45 45 45 44 44 44 45 46 47 49 49 49 49 48 48 47 47 47 47 47 48 47 47 47 49 51 52 53 53 51 49 47 47 48 49 47 47 48 50 50
36 36 36 36 36 36 35 35 35 35 36 38 39 40 41 41 42 43 44 44 46 48 49 50 50 50 50 49 49 49 49 49 49 49 49 48 48 49 51 53 54 54 53 52 50 48 48 48 47 46 48 50
36 36 35 34 35 35 34 34 33 32 32 32 32 32 32 33 37 41 42 43 44 47 49 50 51 51 51 50 50 50 50 50 50 50 51 51 50 49 51 53 54 55 54 55 55 52 50 48 48 46 46 47
37 36 35 33 32 32 32 32 32 32 32 31 30 28 27 27 30 34 37 40 42 45 47 49 51 52 52 52 52 51 51 50 50 51 52 53 52 52 52 52 53 55 54 55 55 55 54 53 51 48 45 45
36 36 35 34 32 32 31 31 32 32 32 31 30 28 27 26 26 28 31 35 39 42 45 48 50 51 52 53 54 53 53 52 51 50 51 53 54 54 53 53 53 54 54 55 54 54 54 55 55 53 49 46
35 35 35 34 33 33 32 32 33 33 33 32 31 29 28 28 28 28 29 30 33 37 40 43 46 48 50 52 54 55 54 54 54 53 51 52 53 55 55 54 54 53 54 55 54 52 51 52 54 56 55 52
35 35 35 34 33 34 34 33 34 35 34 34 33 31 29 29 30 30 30 30 30 32 34 37 41 44 47 49 52 55 56 56 56 56 55 53 52 53 55 56 55 54 53 54 54 52 51 50 50 51 53 55
34 33 33 32 32 34 36 36 35 36 36 35 35 34 33 33 32 32 32 32 31 31 32 34 37 40 43 46 49 52 55 57 57 57 57 57 55 53 54 56 56 55 54 54 54 53 53 51 48 47 47 50
32 32 30 29 29 32 35 37 36 36 35 36 37 37 37 36 34 32 32 33 33 33 33 33 35 37 39 42 45 48 52 55 56 58 58 59 59 57 55 55 55 55 55 54 54 54 55 53 50 48 46 45
32 30 29 27 26 27 29 32 34 34 34 35 36 36 36 35 33 31 31 32 33 35 35 35 35 36 37 38 40 43 47 51 53 55 58 59 60 59 58 57 56 55 55 55 54 54 55 54 53 51 47 46
30 29 28 26 25 23 22 22 24 26 27 27 28 29 30 29 29 29 30 31 32 34 35 36 36 37 37 37 38 39 42 46 48 51 55 57 59 60 60 60 58 57 55 56 56 55 55 54 54 53 49 48
29 28 26 25 24 22 21 19 17 18 19 20 21 22 23 24 24 25 26 27 28 30 32 33 34 36 37 38 38 39 40 42 44 46 50 54 57 59 60 61 61 60 57 57 57 56 56 55 54 54 52 50
Wind_Direction
261 259 258 257 258 258 258 257 257 256 253 251 250 249 247 246 243 242 244 246 248 250 252 252 251 251 251 250 249 250 254 255 253 251 250 246 241 238 239 240 237 232 233 236 238 241 243 242 243 246 247 244
263 261 260 259 259 259 258 258 257 256 255 253 251 249 248 246 244 242 242 243 244 244 246 249 249 247 245 245 246 246 248 252 253 251 249 246 244 247 246 243 240 236 233 235 237 239 241 242 243 245 246 246
268 265 262 261 260 259 258 257 257 256 255 254 252 250 248 246 244 243 241 241 241 241 242 244 245 243 241 243 245 246 246 248 250 249 244 239 241 248 248 244 238 232 231 232 236 238 241 242 242 243 244 245
276 273 269 266 264 262 260 258 257 256 255 254 253 251 249 246 244 243 241 240 239 238 240 240 241 242 241 241 242 244 245 243 243 244 243 238 239 242 243 240 234 227 225 227 233 238 240 241 241 241 241 241
281 280 277 274 272 269 266 263 260 258 257 256 255 254 252 249 246 243 241 240 240 238 239 239 239 240 240 241 243 243 241 240 239 240 241 241 239 238 238 236 229 225 223 222 227 234 238 240 241 241 240 240
281 281 280 279 277 276 274 271 268 265 262 259 258 256 254 252 250 247 244 241 240 240 240 239 239 240 240 241 243 243 240 240 242 242 241 241 242 240 235 231 227 224 225 224 225 228 234 238 238 239 239 239
280 280 279 279 278 277 276 276 274 272 269 266 263 259 257 256 254 252 249 245 242 241 241 241 241 242 243 242 240 241 242 240 239 239 238 239 246 246 237 229 226 226 227 227 227 225 228 236 238 238 239 238
279 279 277 277 276 275 274 274 274 274 273 272 269 266 262 259 258 256 253 250 246 243 242 242 242 242 244 245 241 239 240 241 240 236 234 233 238 241 238 231 226 225 227 227 228 226 223 228 236 239 239 238
279 278 276 275 274 273 272 271 271 272 272 272 271 271 269 265 261 258 256 254 251 247 245 244 244 243 243 245 245 243 240 240 241 241 240 237 231 229 229 228 226 225 227 226 226 227 224 223 229 238 240 238
283 280 277 275 273 272 272 271 271 271 271 270 270 271 271 268 265 262 260 258 256 253 249 248 247 246 244 244 246 247 245 243 242 243 245 246 242 232 225 225 227 226 224 224 225 225 225 223 224 232 238 238
287 284 282 279 276 274 273 273 273 273 271 271 270 271 270 267 266 265 263 262 260 258 255 253 251 249 247 246 245 246 247 247 246 245 247 249 248 244 236 227 225 224 222 221 222 223 225 225 224 226 232 235
291 288 286 284 282 279 278 277 276 275 274 272 271 270 269 267 265 264 264 264 263 261 258 256 255 252 249 247 246 245 245 246 247 247 248 248 246 245 243 234 225 222 220 218 218 220 223 226 226 224 229 233
294 293 291 289 287 285 283 281 279 278 276 274 272 270 269 268 266 264 262 263 262 262 260 258 256 255 253 250 248 246 245 244 244 246 247 247 246 245 243 240 234 225 217 215 217 220 222 224 225 224 226 231
293 292 292 291 290 289 286 283 281 279 277 275 274 272 270 268 267 265 263 261 260 259 259 258 258 257 254 253 251 248 247 246 245 245 245 246 247 244 240 240 240 234 222 215 215 219 221 220 221 222 223 226
292 289 288 288 287 287 285 284 283 281 279 277 275 273 271 270 268 266 264 262 259 257 256 256 257 257 256 254 253 251 249 247 247 247 245 244 244 242 240 239 240 240 233 223 217 217 216 214 214 214 215 217
290 288 285 284 283 282 281 281 281 281 279 277 276 275 274 272 270 268 266 264 262 259 257 255 254 254 255 254 253 253 252 249 247 248 247 245 243 240 239 239 240 239 237 232 227 221 215 212 209 206 205 208
293 290 286 284 282 281 279 278 278 278 277 276 274 274 274 274 273 271 268 266 264 262 260 257 254 252 252 253 253 253 253 251 249 247 247 247 246 243 238 236 236 237 237 233 229 224 218 213 210 206 205 204
303 297 293 289 285 282 280 278 276 275 274 273 272 270 270 270 271 272 271 269 266 264 262 259 256 254 251 250 250 251 251 252 251 248 247 247 249 248 243 238 234 233 234 234 229 225 219 212 208 207 207 205
307 304 301 297 293 288 284 281 278 275 273 272 271 270 268 267 266 267 269 270 269 267 265 262 259 256 254 251 249 249 249 250 251 250 248 247 248 249 248 245 241 235 231 232 231 228 222 213 207 206 205 203
305 305 304 302 299 296 293 288 284 279 276 274 272 270 268 267 264 263 263 265 266 267 267 265 262 259 256 254 251 250 249 249 249 249 249 248 247 247 248 249 249 245 237 232 231 231 229 222 213 208 205 203
303 302 301 301 302 302 300 297 293 289 284 280 275 271 269 268 265 262 260 259 258 260 263 264 264 262 259 256 254 252 250 248 248 248 248 248 247 246 247 247 249 249 245 239 235 232 231 230 226 217 210 207
301 300 298 299 301 301 300 298 297 296 293 290 286 281 277 272 267 263 260 257 254 253 255 258 261 262 261 259 256 254 252 250 248 247 247 247 247 246 246 246 246 248 248 246 243 238 234 234 234 230 222 215
297 295 294 295 295 294 293 292 291 291 291 292 293 293 289 283 275 269 264 260 256 252 251 252 255 258 260 260 258 255 254 252 249 247 246 246 246 246 246 246 245 246 248 248 247 246 242 239 237 237 233 227
296 290 288 288 288 288 286 284 284 284 286 288 290 291 292 292 288 281 274 268 263 258 253 251 250 251 254 256 257 256 254 253 251 248 247 245 245 244 245 245 245 246 247 247 247 247 248 246 243 241 239 236
304 298 293 288 284 281 280 280 280 281 283 284 285 287 288 289 288 286 282 278 274 268 262 256 251 249 248 250 252 254 254 253 251 250 248 246 245 244 243 244 244 245 246 247 246 246 247 248 248 247 245 241
311 308 304 297 287 277 273 274 275 277 279 281 283 284 284 284 284 285 284 283 281 277 273 266 258 252 248 246 246 247 250 251 251 250 248 247 246 244 243 242 242 243 245 246 246 247 246 245 247 249 250 248
314 312 309 303 292 280 272 269 269 273 277 280 282 284 284 284 283 283 283 281 279 277 276 272 267 260 254 249 245 243 244 246 248 248 247 247 247 246 244 242 240 241 243 244 245 247 247 245 244 244 247 250
319 316 312 307 298 288 280 275 272 272 275 278 282 285 286 287 287 285 283 280 277 275 274 273 272 269 263 257 251 247 243 242 243 245 245 245 246 246 246 244 241 240 241 242 244 246 247 247 246 243 242 245
322 320 318 313 308 301 292 286 282 279 280 281 285 288 289 290 290 287 283 279 276 275 273 272 271 271 269 265 260 255 249 243 241 242 242 242 243 244 245 245 243 241 240 241 243 245 245 246 247 245 242 241
325 324 325 323 321 317 311 303 295 291 290 289 289 289 290 290 288 286 283 280 277 276 275 274 272 271 269 268 266 262 256 250 245 242 242 241 240 240 241 243 243 241 240 240 242 244 245 245 247 247 245 242
327 327 328 329 329 328 326 322 314 305 300 297 294 292 291 291 289 288 285 283 281 279 277 275 274 272 270 268 266 264 261 256 251 246 244 242 240 238 238 240 242 241 240 240 240 242 244 245 246 247 247 247